Location: Celina Division
(33.3022°N, 96.7580°W)
Time: 01:51:00
(UTC+00:00)

H-2A R/B - Pass Details

Date: 11 July 2022
Orbit: 491 x 536 km, 97.3° (Epoch: 01 April)

Event Time Altitude Azimuth Distance (km) Brightness Sun altitude
Rises 10:23:39 0° 28° (NNE) 2,635 7.6 -11.9°
Reaches altitude 10° 10:26:05 10° 43° (NE) 1,750 6.9 -11.5°
Maximum altitude 10:29:05 22° 96° (E) 1,160 5.1 -11.0°
Drops below altitude 10° 10:32:06 10° 149° (SSE) 1,754 5.3 -10.5°
Sets 10:34:32 0° 164° (SSE) 2,642 6.1 -10.1°
